P/2004 V1 (Skiff)

Epoch 2004 Dec. 21.0 TT = JDT 2453360.5  

T 2004 Dec. 8.86303 TT                                  Nakano

q   1.4184573            (2000.0)            P               Q

n   0.09876576     Peri.  144.76127     +0.88082663     -0.43954102

a   4.6351639      Node   242.23727     +0.37580106     +0.87511508

e   0.6939790      Incl.   11.46718     +0.28795487     +0.20242846

P   9.98 (+/- 0.11 day)

From 158 observations 2004 Oct. 7-2005 Feb. 28, mean residual 0".79.

Residuals in seconds of arc 

2004/                     041115 118  0.3+  1.2-    041225 349  1.1+  0.2+  

041007 704  0.8-  0.1+    041115 118  0.8-  0.1+    041225 349  0.9+  0.8+  

041007 704  0.3+  0.1-    041117 J97  1.4+  0.0     041225 349  1.2+  0.5+  

041007 704  1.1-  0.9+    041118 170  0.4+  0.8-    041226 349  0.1+  0.6-  

041007 704  0.5+  0.6+    041118 170  0.1+  0.5-    041226 349  0.0   0.2-  

041018 704  0.3-  0.2+    041118 170  0.1-  0.6-    041226 349  0.5-  0.3-  

041018 704  0.7+  0.6-    041118 170  0.1-  0.4-    2005/                   

041018 704  0.9-  0.9+    041130 673  0.2-  0.2-    050101 349  1.0+  0.4+  

041018 704  0.3-  0.5+    041130 673  1.1-  0.3-    050101 349  0.8+  0.3-  

041018 704  0.4-  1.0+    041130 673  1.1-  0.3-    050101 349  0.4+  0.2-  

041104 699  0.2+  0.2+    041130 673  1.3-  0.2-    050103 104  0.8-  0.6-  

041104 699  0.1+  0.5+    041130 360  0.5-  0.4-    050103 104  0.4-  0.5-  

041104 699  1.5+  0.7+    041130 360  0.7-  0.3-    050103 104  0.7-  0.4-  

041104 699  1.4+  0.6+    041202 360  0.5-  0.2-    050110 349  0.1+  1.0-  

041104 H06  0.9-  0.3+    041202 360  0.9-  0.4-    050110 349  0.1-  0.4-  

041104 H06 (2.7+  0.7+)   041206 D83  1.0+  0.1-    050110 349  0.2+  0.8-  

041104 448  0.1+  0.3+    041206 D83  0.4+  1.0-    050110 215  0.1-  0.9-  

041104 448  0.3+  0.1+    041206 D83  0.7+  0.4-    050110 215  0.1+  1.2-  

041104 H06 (2.6+  0.1+)   041206 D83  1.1-  1.5-    050114 213  1.6-  0.2-  

041104 448  0.5+  0.3-    041207 246  0.6-  0.2-    050114 213  1.3-  0.1-  

041104 A50  1.7+  1.3+    041207 246  0.4-  0.3-    050114 213  1.5-  0.1-  

041104 A50  1.4+  1.0+    041207 246  0.3-  0.2-    050118 703  1.9-  0.4-  

041104 A50  1.1+  1.1+    041207 246  0.5-  0.1-    050118 703 (2.4-  0.7-) 

041104 A50  1.4+  1.5+    041207 246  0.2-  0.6-    050118 703  1.0-  0.2-  

041104 A50 (2.6+  1.3+)   041207 246  0.4-  0.0     050118 703 (2.7-  0.4+) 

041105 734  1.6+  0.1-    041208 360  0.7-  0.6-    050202 704  1.3+  0.3+  

041105 734  0.4-  0.1-    041208 360  0.4-  0.5-    050202 704 (2.7+  1.5+) 

041105 734 (2.2+  0.7-)   041208 360  0.4-  0.6-    050202 704 (2.5+  0.8+) 

041105 734  0.7-  0.1-    041209 704  1.1+  1.2+    050202 704  1.3+  1.1+  

041105 104  1.1-  0.1-    041209 704  0.7+  1.2+    050202 704  1.7+  1.2+  

041105 104  1.4-  0.5-    041209 704  1.0+  0.8+    050204 704  0.9-  1.0+  

041105 104  0.5-  0.1-    041209 704 (4.8+  1.2+)   050204 699  1.9+  1.5+  

041105 213  0.1-  0.4+    041209 704  1.6+  0.8+    050204 704  0.2+  1.6+  

041105 213  0.3+  0.4+    041211 130  0.2-  1.1-    050204 704  0.2-  0.3+  

041105 213  0.3+  0.4+    041211 130  0.5-  0.7-    050204 699  1.7+  1.2+  

041106 704  0.0   0.2+    041211 130  0.0   0.3-    050204 704  0.5-  0.8+  

041106 704  0.3-  0.5+    041211 130  0.2-  0.4-    050204 704  0.2+  1.4+  

041106 704  0.0   0.3+    041211 561  1.7-  0.1-    050204 704  0.6-  0.8+  

041107 673  0.4+  0.3-    041211 561 (2.4+  1.0+)   050204 699  0.1+  0.1+  

041107 673 (4.2-  0.3-)   041211 561 (2.8-  1.0-)   050204 704  1.7+  0.7+  

041107 673  0.5-  0.5-    041212 704  0.5+  0.3+    050204 704  0.7-  0.9+  

041107 673  1.2-  0.5-    041212 704  0.8+  0.5+    050204 699 (2.5+  1.1+) 

041107 673  1.1-  0.3-    041212 704  1.7+  0.9+    050204 704  0.3-  0.2-  

041107 673  1.4-  0.3-    041212 704  1.7+  1.0+    050204 704  0.8+  1.4+  

041107 360  0.4-  0.4-    041212 704  1.2+  0.2+    050209 704  0.1-  2.0-  

041107 360  0.7-  0.3-    041212 104  0.0   0.2+    050209 704 (3.9+  0.4+) 

041107 360  0.5-  0.6-    041212 104  0.3-  0.0     050209 704  1.0+  0.1-  

041108 I77 (8.4+  0.2-)   041212 104  0.2+  0.3+    050209 704  0.1+  0.1+  

041108 I77 (0.2-  2.1-)   041213 372  1.8-  0.6+    050209 704  1.1+  0.3+  

041109 850 (3.1+  0.3-)   041214 215  0.3-  0.4-    050209 704  0.6-  1.5+  

041109 850  0.2-  0.2-    041214 215  0.4+  0.7-    050209 704  1.5+  0.7+  

041109 850  0.8+  0.3+    041214 215  0.5-  0.8-    050209 704  0.1+  1.1+  

041109 850  1.0+  0.6+    041218 349  1.3+  0.2-    050227 360  0.5-  0.4-  

041112 704  0.2-  0.4+    041218 349  0.5-  1.3-    050227 360  1.2-  0.7-  

041112 704  0.4+  0.7+    041221 703  0.2-  1.3-    050227 360  1.0-  0.4-  

041112 704  0.3+  0.3-    041221 703  1.0-  1.3-    050228 G92 (0.5-  2.9-) 

041112 704  0.5+  0.2-    041221 703  0.5-  1.0-    050228 G92  0.6-  0.3-  

041115 415  0.8-  0.5-    041221 703  0.6+  1.0-    050228 G92  1.9-  0.4-  

041115 415  0.5-  0.5-    041223 349  0.3+  1.2+                            

041115 415  1.5+  0.5-    041223 349  0.7-  1.0+                            



NAKANO

         **** Don't distribute anyone except personal use only ****

                (C) Copyright 2005 OAA/ComputingSection

write mail from CFAD0::NAKANO on 2005-11-03 23:34:28(JST).

 

    P/2004 V1 (Skiff)                                                     

Epoch 2004 Dec. 21.0 TT = JDT 2453360.5  

T 2004 Dec. 8.86040 TT                                  Nakano

q   1.4185111            (2000.0)            P               Q

n   0.09868798     Peri.  144.76029     +0.88085834     -0.43947589

a   4.6375990      Node   242.23412     +0.37573983     +0.87514627

e   0.6941281      Incl.   11.46778     +0.28793776     +0.20243505

P   9.99 (+/- 0.26 day)

From 132 observations 2004 Oct. 7-2005 Jan. 18, mean residual 0".72.



NAKANO

         **** Don't distribute anyone except personal use only ****

                (C) Copyright 2005 OAA/ComputingSection

write mail from CFAD0::NAKANO on 2005-02-04 04:54:56(JST).

 



    P/2004 V1 (Skiff)                                                     

Epoch 2004 Dec. 21.0 TT = JDT 2453360.5  

T 2004 Dec. 8.86706 TT                                  Nakano

q   1.4183736            (2000.0)            P               Q

n   0.09889097     Peri.  144.76375     +0.88077789     -0.43964082

a   4.6312508      Node   242.24114     +0.37589596     +0.87506821

e   0.6937385      Incl.   11.46642     +0.28798010     +0.20241438

P   9.97 (+/- 0.55 day)

From 114 observations 2004 Oct. 7-Dec. 26, mean residual 0".72.



NAKANO

         **** Don't distribute anyone except personal use only ****

                (C) Copyright 2005 OAA/ComputingSection

write mail from CFAD0::NAKANO on 2005-01-04 01:58:32(JST).

 



    P/2004 V1 (Skiff)                                                     

T 2004 Dec. 8.85932 TT                                  Nakano

q   1.4185697            (2000.0)            P               Q

n   0.09863274     Peri.  144.75958     +0.88088570     -0.43942002

a   4.6393305      Node   242.23128     +0.37568749     +0.87517296

e   0.6942296      Incl.   11.46825     +0.28792238     +0.20244094

P   9.99 (+/- 1.03 day)

From 66 observations 2004 Oct. 7-Dec. 2.



NAKANO

         **** Don't distribute anyone except personal use only ****

                (C) Copyright 2004 OAA/ComputingSection

write mail from CFAD0::NAKANO on 2004-12-09 01:41:38(JST).

 



◎P/2004 V1の軌道と予報位置です



  久万の中村彰正氏から11月7日の観測が報告された.氏のCCD全光度は,

18.0等とのこと.



    P/2004 V1 (Skiff)                                                     

T 2004 Dec. 8.85957 TT                                  Nakano

q   1.4186264            (2000.0)            P               Q

n   0.09865951     Peri.  144.75627     +0.88091109     -0.43936787

a   4.6384914      Node   242.23123     +0.37563562     +0.87519591

e   0.6941621      Incl.   11.46846     +0.28791238     +0.20245491

P   9.99 (+/- 4.18 day)

From 41 observations 2004 Oct. 7-Nov. 7.

 

Date/        TT  R.A.(2000) Decl.     Delta   r     Daily motion  Mag.  Moon Age

              h    h  m       。  ,                      ,  / PA 。  m1      。

2004 Nov.  5 12  21 11.39  -00 34.2   0.984  1.474    35.1 /  90  17.6  160  .48

           6 12  21 13.73  -00 34.1   0.986  1.471    35.6 /  89  17.6  159  .38

           7 12  21 16.11  -00 33.8   0.988  1.468    36.2 /  89  17.6  153  .29

           8 12  21 18.52  -00 33.2   0.991  1.465    36.7 /  89  17.6  144  .20

           9 12  21 20.96  -00 32.5   0.993  1.462    37.2 /  89  17.6  133  .12

          10 12  21 23.44  -00 31.5   0.995  1.459    37.7 /  88  17.6  121  .06

          11 12  21 25.96  -00 30.4   0.998  1.456    38.2 /  88  17.6  109  .02

          12 12  21 28.50  -00 29.0   1.000  1.453    38.7 /  88  17.6   96  .00

          13 12  21 31.08  -00 27.4   1.003  1.451    39.2 /  87  17.6   82  .01

          14 12  21 33.69  -00 25.6   1.006  1.448    39.7 /  87  17.6   69  .05

          15 12  21 36.33  -00 23.6   1.008  1.446    40.1 /  87  17.6   56  .12

          16 12  21 39.00  -00 21.3   1.011  1.444    40.6 /  87  17.6   43  .20

          17 12  21 41.71  -00 18.9   1.014  1.442    41.1 /  86  17.6   31  .31

          18 12  21 44.44  -00 16.2   1.016  1.440    41.5 /  86  17.6   21  .42

          19 12  21 47.20  -00 13.3   1.019  1.438    41.9 /  86  17.6   17  .53

          20 12  21 49.98  -00 10.1   1.022  1.436    42.3 /  85  17.6   22  .64

          21 12  21 52.80  -00 06.8   1.025  1.434    42.8 /  85  17.6   31  .74

          22 12  21 55.64  -00 03.2   1.028  1.432    43.2 /  85  17.6   42  .82

          23 12  21 58.51  +00 00.5   1.031  1.431    43.6 /  85  17.6   53  .89

          24 12  22 01.40  +00 04.5   1.034  1.429    43.9 /  85  17.6   64  .95

          25 12  22 04.31  +00 08.7   1.037  1.428    44.3 /  84  17.6   75  .98

          26 12  22 07.25  +00 13.1   1.041  1.426    44.7 /  84  17.6   86 1.00

          27 12  22 10.21  +00 17.7   1.044  1.425    45.0 /  84  17.6   97 1.00

          28 12  22 13.20  +00 22.5   1.047  1.424    45.4 /  84  17.6  108  .97

          29 12  22 16.21  +00 27.6   1.051  1.423    45.7 /  83  17.6  119  .93

          30 12  22 19.23  +00 32.8   1.054  1.422    46.0 /  83  17.6  130  .88

     Dec.  1 12  22 22.28  +00 38.2   1.058  1.421    46.4 /  83  17.6  140  .81

           2 12  22 25.35  +00 43.9   1.061  1.421    46.7 /  83  17.7  150  .74

           3 12  22 28.43  +00 49.7   1.065  1.420    47.0 /  83  17.7  159  .65

           4 12  22 31.54  +00 55.7   1.069  1.420    47.3 /  82  17.7  166  .55

           5 12  22 34.66  +01 01.9   1.073  1.419    47.5 /  82  17.7  165  .45

NAKANO

         **** Don't distribute anyone except personal use only ****

                (C) Copyright 2004 OAA/ComputingSection

write mail from CFAD0::NAKANO on 2004-11-10 05:07:08(JST).

 



戻ります。